Time,TemperatureF,DewpointF,PressureIn,WindDirection,WindDirectionDegrees,WindSpeedMPH,WindSpeedGustMPH,Humidity,HourlyPrecipIn,Conditions,Clouds,dailyrainin,SoftwareType,DateUTC
2013-11-05 00:00:00,62.2,53.8,30.23,North,0,0.0,0.0,74,0.00,,,0.00,WUHU21623XXSP,2013-11-05 06:00:00,
2013-11-05 00:05:00,62.2,53.8,30.23,North,0,0.0,0.0,74,0.00,,,0.00,WUHU21623XXSP,2013-11-05 06:05:00,
2013-11-05 00:10:00,61.9,53.9,30.23,North,0,0.0,0.0,75,0.00,,,0.00,WUHU21623XXSP,2013-11-05 06:10:00,
2013-11-05 00:15:00,61.7,53.9,30.23,North,0,0.0,0.0,75,0.00,,,0.00,WUHU21623XXSP,2013-11-05 06:15:00,
2013-11-05 00:20:00,61.7,53.7,30.23,North,0,0.0,0.0,75,0.00,,,0.00,WUHU21623XXSP,2013-11-05 06:20:00,
2013-11-05 00:25:00,61.5,53.9,30.22,North,0,0.0,0.0,76,0.00,,,0.00,WUHU21623XXSP,2013-11-05 06:25:00,
2013-11-05 00:30:00,61.5,53.9,30.23,North,0,0.0,0.0,76,0.00,,,0.00,WUHU21623XXSP,2013-11-05 06:30:00,
2013-11-05 00:35:00,61.3,53.7,30.23,North,0,0.0,0.0,76,0.00,,,0.00,WUHU21623XXSP,2013-11-05 06:35:00,
2013-11-05 00:40:00,61.3,53.7,30.23,North,0,0.0,0.0,76,0.00,,,0.00,WUHU21623XXSP,2013-11-05 06:40:00,
2013-11-05 00:45:00,61.2,53.6,30.23,North,0,0.0,0.0,76,0.00,,,0.00,WUHU21623XXSP,2013-11-05 06:45:00,
2013-11-05 00:50:00,61.2,53.6,30.23,North,0,0.0,0.0,76,0.00,,,0.00,WUHU21623XXSP,2013-11-05 06:50:00,
2013-11-05 00:55:00,61.0,53.4,30.23,North,0,0.0,0.0,76,0.00,,,0.00,WUHU21623XXSP,2013-11-05 06:55:00,
2013-11-05 01:00:00,61.0,53.4,30.23,North,0,0.0,0.0,76,0.00,,,0.00,WUHU21623XXSP,2013-11-05 07:00:00,
2013-11-05 01:05:00,61.0,53.4,30.23,North,0,0.0,0.0,76,0.00,,,0.00,WUHU21623XXSP,2013-11-05 07:05:00,
2013-11-05 01:10:00,61.0,53.4,30.23,North,0,0.0,0.0,76,0.00,,,0.00,WUHU21623XXSP,2013-11-05 07:10:00,
2013-11-05 01:16:00,61.0,53.8,30.22,North,0,0.0,0.0,77,0.00,,,0.00,WUHU21623XXSP,2013-11-05 07:16:00,
2013-11-05 01:21:00,61.0,53.8,30.23,North,0,0.0,0.0,77,0.00,,,0.00,WUHU21623XXSP,2013-11-05 07:21:00,
2013-11-05 01:26:00,61.0,53.8,30.23,North,0,0.0,0.0,77,0.00,,,0.00,WUHU21623XXSP,2013-11-05 07:26:00,
2013-11-05 01:31:00,61.0,53.8,30.22,North,0,0.0,0.0,77,0.00,,,0.00,WUHU21623XXSP,2013-11-05 07:31:00,
2013-11-05 01:36:00,60.8,53.6,30.22,North,0,0.0,0.0,77,0.00,,,0.00,WUHU21623XXSP,2013-11-05 07:36:00,
2013-11-05 01:41:00,60.6,53.4,30.22,North,0,0.0,0.0,77,0.00,,,0.00,WUHU21623XXSP,2013-11-05 07:41:00,
2013-11-05 01:46:00,60.8,53.6,30.22,North,0,0.0,0.0,77,0.00,,,0.00,WUHU21623XXSP,2013-11-05 07:46:00,
2013-11-05 01:51:00,60.6,53.8,30.22,North,0,0.0,0.0,78,0.00,,,0.00,WUHU21623XXSP,2013-11-05 07:51:00,
2013-11-05 01:56:00,60.6,53.8,30.22,North,0,0.0,0.0,78,0.00,,,0.00,WUHU21623XXSP,2013-11-05 07:56:00,
2013-11-05 02:01:00,60.6,53.8,30.22,North,0,0.0,0.0,78,0.00,,,0.00,WUHU21623XXSP,2013-11-05 08:01:00,
2013-11-05 02:06:00,60.6,53.8,30.22,North,0,0.0,0.0,78,0.00,,,0.00,WUHU21623XXSP,2013-11-05 08:06:00,
2013-11-05 02:11:00,60.6,53.8,30.22,North,0,0.0,0.0,78,0.00,,,0.00,WUHU21623XXSP,2013-11-05 08:11:00,
2013-11-05 02:16:00,60.6,53.8,30.22,North,0,0.0,0.0,78,0.00,,,0.00,WUHU21623XXSP,2013-11-05 08:16:00,
2013-11-05 02:21:00,60.6,53.8,30.23,North,0,0.0,0.0,78,0.00,,,0.00,WUHU21623XXSP,2013-11-05 08:21:00,
2013-11-05 02:26:00,60.4,53.6,30.23,North,0,0.0,0.0,78,0.00,,,0.00,WUHU21623XXSP,2013-11-05 08:26:00,
2013-11-05 02:31:00,60.4,53.6,30.23,North,0,0.0,0.0,78,0.00,,,0.00,WUHU21623XXSP,2013-11-05 08:31:00,
2013-11-05 02:36:00,60.6,53.8,30.23,North,0,0.0,0.0,78,0.00,,,0.00,WUHU21623XXSP,2013-11-05 08:36:00,
2013-11-05 02:41:00,60.6,53.8,30.23,North,0,0.0,0.0,78,0.00,,,0.00,WUHU21623XXSP,2013-11-05 08:41:00,
2013-11-05 02:46:00,60.4,53.8,30.23,North,0,0.0,0.0,78,0.00,,,0.00,WUHU21623XXSP,2013-11-05 08:46:00,
2013-11-05 02:51:00,60.4,53.2,30.22,North,0,0.0,0.0,77,0.00,,,0.00,WUHU21623XXSP,2013-11-05 08:51:00,
2013-11-05 02:56:00,60.4,53.2,30.23,North,0,0.0,0.0,77,0.00,,,0.00,WUHU21623XXSP,2013-11-05 08:56:00,
2013-11-05 03:01:00,60.4,53.2,30.23,North,0,0.0,0.0,77,0.00,,,0.00,WUHU21623XXSP,2013-11-05 09:01:00,
2013-11-05 03:06:00,60.4,53.2,30.23,North,0,0.0,0.0,77,0.00,,,0.00,WUHU21623XXSP,2013-11-05 09:06:00,
2013-11-05 03:11:00,60.1,52.9,30.23,North,0,0.0,0.0,77,0.00,,,0.00,WUHU21623XXSP,2013-11-05 09:11:00,
2013-11-05 03:16:00,60.1,52.9,30.23,North,0,0.0,0.0,77,0.00,,,0.00,WUHU21623XXSP,2013-11-05 09:16:00,
2013-11-05 03:21:00,60.1,52.9,30.23,North,0,0.0,0.0,77,0.00,,,0.00,WUHU21623XXSP,2013-11-05 09:21:00,
2013-11-05 03:26:00,60.1,52.9,30.23,North,0,0.0,0.0,77,0.00,,,0.00,WUHU21623XXSP,2013-11-05 09:26:00,
2013-11-05 03:31:00,59.9,52.7,30.23,North,0,0.0,0.0,77,0.00,,,0.00,WUHU21623XXSP,2013-11-05 09:31:00,
2013-11-05 03:36:00,59.7,52.5,30.23,North,0,0.0,0.0,77,0.00,,,0.00,WUHU21623XXSP,2013-11-05 09:36:00,
2013-11-05 03:41:00,59.5,52.7,30.23,North,0,0.0,0.0,78,0.00,,,0.00,WUHU21623XXSP,2013-11-05 09:41:00,
2013-11-05 03:46:00,59.5,52.7,30.23,North,0,0.0,0.0,78,0.00,,,0.00,WUHU21623XXSP,2013-11-05 09:46:00,
2013-11-05 03:51:00,59.4,52.5,30.23,North,0,0.0,0.0,78,0.00,,,0.00,WUHU21623XXSP,2013-11-05 09:51:00,
2013-11-05 03:56:00,59.2,52.3,30.23,North,0,0.0,0.0,78,0.00,,,0.00,WUHU21623XXSP,2013-11-05 09:56:00,
2013-11-05 04:01:00,59.2,52.3,30.23,North,0,0.0,0.0,78,0.00,,,0.00,WUHU21623XXSP,2013-11-05 10:01:00,
2013-11-05 04:06:00,59.2,52.3,30.23,North,0,0.0,0.0,78,0.00,,,0.00,WUHU21623XXSP,2013-11-05 10:06:00,
2013-11-05 04:11:00,59.2,52.0,30.22,North,0,0.0,0.0,77,0.00,,,0.00,WUHU21623XXSP,2013-11-05 10:11:00,
2013-11-05 04:16:00,59.2,52.0,30.22,North,0,0.0,0.0,77,0.00,,,0.00,WUHU21623XXSP,2013-11-05 10:16:00,
2013-11-05 04:21:00,59.2,52.0,30.22,North,0,0.0,0.0,77,0.00,,,0.00,WUHU21623XXSP,2013-11-05 10:21:00,
2013-11-05 04:26:00,59.2,51.6,30.22,North,0,0.0,0.0,76,0.00,,,0.00,WUHU21623XXSP,2013-11-05 10:26:00,
2013-11-05 04:31:00,59.2,51.6,30.22,North,0,0.0,0.0,76,0.00,,,0.00,WUHU21623XXSP,2013-11-05 10:31:00,
2013-11-05 04:36:00,59.2,51.6,30.23,North,0,0.0,0.0,76,0.00,,,0.00,WUHU21623XXSP,2013-11-05 10:36:00,
2013-11-05 04:41:00,58.8,51.3,30.23,North,0,0.0,0.0,76,0.00,,,0.00,WUHU21623XXSP,2013-11-05 10:41:00,
2013-11-05 04:46:00,58.8,51.3,30.23,North,0,0.0,0.0,76,0.00,,,0.00,WUHU21623XXSP,2013-11-05 10:46:00,
2013-11-05 04:51:00,58.8,51.3,30.23,North,0,0.0,0.0,76,0.00,,,0.00,WUHU21623XXSP,2013-11-05 10:51:00,
2013-11-05 04:56:00,58.8,51.3,30.23,North,0,0.0,0.0,76,0.00,,,0.00,WUHU21623XXSP,2013-11-05 10:56:00,
2013-11-05 05:01:00,58.6,51.1,30.23,North,0,0.0,0.0,76,0.00,,,0.00,WUHU21623XXSP,2013-11-05 11:01:00,
2013-11-05 05:06:00,58.6,51.1,30.23,North,0,0.0,0.0,76,0.00,,,0.00,WUHU21623XXSP,2013-11-05 11:06:00,
2013-11-05 05:11:00,58.5,50.9,30.24,North,0,0.0,0.0,76,0.00,,,0.00,WUHU21623XXSP,2013-11-05 11:11:00,
2013-11-05 05:16:00,58.5,50.5,30.24,North,0,0.0,0.0,75,0.00,,,0.00,WUHU21623XXSP,2013-11-05 11:16:00,
2013-11-05 05:21:00,58.5,50.5,30.24,North,0,0.0,0.0,75,0.00,,,0.00,WUHU21623XXSP,2013-11-05 11:21:00,
2013-11-05 05:26:00,58.6,50.7,30.24,North,0,0.0,0.0,75,0.00,,,0.00,WUHU21623XXSP,2013-11-05 11:26:00,
2013-11-05 05:31:00,58.6,50.7,30.24,North,0,0.0,0.0,75,0.00,,,0.00,WUHU21623XXSP,2013-11-05 11:31:00,
2013-11-05 05:36:00,58.5,50.7,30.25,North,0,0.0,0.0,75,0.00,,,0.00,WUHU21623XXSP,2013-11-05 11:36:00,
2013-11-05 05:41:00,58.6,50.7,30.24,North,0,0.0,0.0,75,0.00,,,0.00,WUHU21623XXSP,2013-11-05 11:41:00,
2013-11-05 05:46:00,58.6,50.7,30.24,North,0,0.0,0.0,75,0.00,,,0.00,WUHU21623XXSP,2013-11-05 11:46:00,
2013-11-05 05:51:00,58.6,50.7,30.25,North,0,0.0,0.0,75,0.00,,,0.00,WUHU21623XXSP,2013-11-05 11:51:00,
2013-11-05 05:56:00,58.6,50.7,30.25,North,0,0.0,0.0,75,0.00,,,0.00,WUHU21623XXSP,2013-11-05 11:56:00,
2013-11-05 06:01:00,58.6,50.7,30.25,North,0,0.0,0.0,75,0.00,,,0.00,WUHU21623XXSP,2013-11-05 12:01:00,
2013-11-05 06:06:00,58.6,50.4,30.25,North,0,0.0,0.0,74,0.00,,,0.00,WUHU21623XXSP,2013-11-05 12:06:00,
2013-11-05 06:11:00,58.5,50.4,30.25,North,0,0.0,0.0,74,0.00,,,0.00,WUHU21623XXSP,2013-11-05 12:11:00,
2013-11-05 06:16:00,58.5,50.2,30.25,North,0,0.0,0.0,74,0.00,,,0.00,WUHU21623XXSP,2013-11-05 12:16:00,
2013-11-05 06:21:00,58.3,50.0,30.25,North,0,0.0,0.0,74,0.00,,,0.00,WUHU21623XXSP,2013-11-05 12:21:00,
2013-11-05 06:26:00,58.3,50.0,30.25,North,0,0.0,0.0,74,0.00,,,0.00,WUHU21623XXSP,2013-11-05 12:26:00,
2013-11-05 06:31:00,58.1,49.8,30.26,North,0,0.0,0.0,74,0.00,,,0.00,WUHU21623XXSP,2013-11-05 12:31:00,
2013-11-05 06:36:00,58.1,49.8,30.26,North,0,0.0,0.0,74,0.00,,,0.00,WUHU21623XXSP,2013-11-05 12:36:00,
2013-11-05 06:41:00,57.9,49.6,30.26,North,0,0.0,0.0,74,0.00,,,0.00,WUHU21623XXSP,2013-11-05 12:41:00,
2013-11-05 06:46:00,57.9,49.6,30.26,North,0,0.0,0.0,74,0.00,,,0.00,WUHU21623XXSP,2013-11-05 12:46:00,
2013-11-05 06:51:00,57.7,49.5,30.26,North,0,0.0,0.0,74,0.00,,,0.00,WUHU21623XXSP,2013-11-05 12:51:00,
2013-11-05 06:56:00,57.7,49.5,30.26,North,0,0.0,0.0,74,0.00,,,0.00,WUHU21623XXSP,2013-11-05 12:56:00,
2013-11-05 07:01:00,57.7,49.5,30.26,North,0,0.0,0.0,74,0.00,,,0.00,WUHU21623XXSP,2013-11-05 13:01:00,
2013-11-05 07:06:00,57.7,49.5,30.26,North,0,0.0,0.0,74,0.00,,,0.00,WUHU21623XXSP,2013-11-05 13:06:00,
2013-11-05 07:11:00,57.7,49.5,30.26,North,0,0.0,0.0,74,0.00,,,0.00,WUHU21623XXSP,2013-11-05 13:11:00,
2013-11-05 07:16:00,57.9,49.6,30.26,North,0,0.0,0.0,74,0.00,,,0.00,WUHU21623XXSP,2013-11-05 13:16:00,
2013-11-05 07:21:00,57.9,49.6,30.27,North,0,0.0,0.0,74,0.00,,,0.00,WUHU21623XXSP,2013-11-05 13:21:00,
2013-11-05 07:26:00,58.1,49.8,30.27,North,0,0.0,0.0,74,0.00,,,0.00,WUHU21623XXSP,2013-11-05 13:26:00,
2013-11-05 07:31:00,58.1,49.8,30.28,North,0,0.0,0.0,74,0.00,,,0.00,WUHU21623XXSP,2013-11-05 13:31:00,
2013-11-05 07:36:00,58.1,49.6,30.28,North,0,0.0,0.0,74,0.00,,,0.00,WUHU21623XXSP,2013-11-05 13:36:00,
2013-11-05 07:41:00,58.1,49.8,30.27,North,0,0.0,0.0,74,0.00,,,0.00,WUHU21623XXSP,2013-11-05 13:41:00,
2013-11-05 07:46:00,58.1,49.8,30.28,North,0,0.0,0.0,74,0.00,,,0.00,WUHU21623XXSP,2013-11-05 13:46:00,
2013-11-05 07:51:00,58.1,49.8,30.28,North,0,0.0,0.0,74,0.00,,,0.00,WUHU21623XXSP,2013-11-05 13:51:00,
2013-11-05 07:56:00,58.5,50.0,30.28,North,0,0.0,0.0,74,0.00,,,0.00,WUHU21623XXSP,2013-11-05 13:56:00,
2013-11-05 08:01:00,58.6,50.4,30.28,North,0,0.0,0.0,74,0.00,,,0.00,WUHU21623XXSP,2013-11-05 14:01:00,
2013-11-05 08:06:00,58.8,50.5,30.28,North,0,0.0,0.0,74,0.00,,,0.00,WUHU21623XXSP,2013-11-05 14:06:00,
2013-11-05 08:11:00,59.2,50.9,30.28,North,0,0.0,0.0,74,0.00,,,0.00,WUHU21623XXSP,2013-11-05 14:11:00,
2013-11-05 08:16:00,59.2,50.5,30.28,North,0,0.0,0.0,73,0.00,,,0.00,WUHU21623XXSP,2013-11-05 14:16:00,
2013-11-05 08:21:00,59.4,50.7,30.28,North,0,0.0,0.0,73,0.00,,,0.00,WUHU21623XXSP,2013-11-05 14:21:00,
2013-11-05 08:26:00,59.5,50.9,30.28,North,0,0.0,0.0,73,0.00,,,0.00,WUHU21623XXSP,2013-11-05 14:26:00,
2013-11-05 08:31:00,59.7,51.1,30.28,North,0,0.0,0.0,73,0.00,,,0.00,WUHU21623XXSP,2013-11-05 14:31:00,
2013-11-05 08:36:00,59.9,51.3,30.28,North,0,0.0,0.0,73,0.00,,,0.00,WUHU21623XXSP,2013-11-05 14:36:00,
2013-11-05 08:41:00,60.1,51.4,30.28,North,0,0.0,0.0,73,0.00,,,0.00,WUHU21623XXSP,2013-11-05 14:41:00,
2013-11-05 08:46:00,60.4,51.8,30.28,North,0,0.0,0.0,73,0.00,,,0.00,WUHU21623XXSP,2013-11-05 14:46:00,
2013-11-05 08:51:00,60.6,52.0,30.28,North,0,0.0,0.0,73,0.00,,,0.00,WUHU21623XXSP,2013-11-05 14:51:00,
2013-11-05 08:56:00,60.6,52.0,30.28,North,0,0.0,0.0,73,0.00,,,0.00,WUHU21623XXSP,2013-11-05 14:56:00,
2013-11-05 09:01:00,61.0,52.2,30.28,North,0,0.0,0.0,73,0.00,,,0.00,WUHU21623XXSP,2013-11-05 15:01:00,
2013-11-05 09:06:00,61.2,52.5,30.29,North,0,0.0,0.0,73,0.00,,,0.00,WUHU21623XXSP,2013-11-05 15:06:00,
2013-11-05 09:11:00,61.5,52.4,30.29,North,0,0.0,0.0,72,0.00,,,0.00,WUHU21623XXSP,2013-11-05 15:11:00,
2013-11-05 09:16:00,61.5,52.8,30.29,North,0,0.0,0.0,73,0.00,,,0.00,WUHU21623XXSP,2013-11-05 15:16:00,
2013-11-05 09:21:00,61.9,53.1,30.29,North,0,0.0,0.0,73,0.00,,,0.00,WUHU21623XXSP,2013-11-05 15:21:00,
2013-11-05 09:26:00,62.1,52.9,30.29,North,0,0.0,0.0,72,0.00,,,0.00,WUHU21623XXSP,2013-11-05 15:26:00,
2013-11-05 09:31:00,62.2,52.7,30.29,North,0,0.0,0.0,71,0.00,,,0.00,WUHU21623XXSP,2013-11-05 15:31:00,
2013-11-05 09:36:00,62.4,53.3,30.29,North,0,0.0,0.0,72,0.00,,,0.00,WUHU21623XXSP,2013-11-05 15:36:00,
2013-11-05 09:41:00,62.4,53.3,30.29,North,0,0.0,0.0,72,0.00,,,0.00,WUHU21623XXSP,2013-11-05 15:41:00,
2013-11-05 09:46:00,62.8,53.4,30.29,North,0,0.0,0.0,72,0.00,,,0.00,WUHU21623XXSP,2013-11-05 15:46:00,
2013-11-05 09:51:00,63.0,53.8,30.29,North,0,0.0,0.0,72,0.00,,,0.00,WUHU21623XXSP,2013-11-05 15:51:00,
2013-11-05 09:56:00,63.0,53.8,30.29,North,0,0.0,0.0,72,0.00,,,0.00,WUHU21623XXSP,2013-11-05 15:56:00,
2013-11-05 10:01:00,63.1,53.8,30.28,North,0,0.0,0.0,72,0.00,,,0.00,WUHU21623XXSP,2013-11-05 16:01:00,
2013-11-05 10:06:00,63.3,54.1,30.28,North,0,0.0,0.0,72,0.00,,,0.00,WUHU21623XXSP,2013-11-05 16:06:00,
2013-11-05 10:11:00,63.7,54.1,30.27,North,0,0.0,0.0,71,0.00,,,0.00,WUHU21623XXSP,2013-11-05 16:11:00,
2013-11-05 10:16:00,64.0,54.5,30.28,North,0,0.0,0.0,71,0.00,,,0.00,WUHU21623XXSP,2013-11-05 16:16:00,
2013-11-05 10:21:00,64.2,54.7,30.28,North,0,0.0,0.0,71,0.00,,,0.00,WUHU21623XXSP,2013-11-05 16:21:00,
2013-11-05 10:26:00,64.2,54.3,30.27,North,0,0.0,0.0,71,0.00,,,0.00,WUHU21623XXSP,2013-11-05 16:26:00,
2013-11-05 10:31:00,64.4,54.9,30.27,North,0,0.0,0.0,71,0.00,,,0.00,WUHU21623XXSP,2013-11-05 16:31:00,
2013-11-05 10:36:00,64.9,55.0,30.27,North,0,0.0,0.0,70,0.00,,,0.00,WUHU21623XXSP,2013-11-05 16:36:00,
2013-11-05 10:41:00,64.9,55.0,30.27,North,0,0.0,0.0,71,0.00,,,0.00,WUHU21623XXSP,2013-11-05 16:41:00,
2013-11-05 10:46:00,65.1,55.5,30.27,North,0,0.0,0.0,70,0.00,,,0.00,WUHU21623XXSP,2013-11-05 16:46:00,
2013-11-05 10:51:00,65.5,55.3,30.26,North,0,0.0,0.0,70,0.00,,,0.00,WUHU21623XXSP,2013-11-05 16:51:00,
2013-11-05 10:56:00,65.5,55.8,30.26,North,0,0.0,0.0,71,0.00,,,0.00,WUHU21623XXSP,2013-11-05 16:56:00,
2013-11-05 11:01:00,65.8,56.2,30.26,North,0,0.0,0.0,71,0.00,,,0.00,WUHU21623XXSP,2013-11-05 17:01:00,
2013-11-05 11:06:00,66.0,56.0,30.26,North,0,0.0,0.0,70,0.00,,,0.00,WUHU21623XXSP,2013-11-05 17:06:00,
2013-11-05 11:11:00,66.4,56.3,30.26,North,0,0.0,0.0,70,0.00,,,0.00,WUHU21623XXSP,2013-11-05 17:11:00,
2013-11-05 11:16:00,66.7,56.2,30.25,North,0,0.0,0.0,69,0.00,,,0.00,WUHU21623XXSP,2013-11-05 17:16:00,
2013-11-05 11:21:00,67.1,57.0,30.25,North,0,0.0,0.0,70,0.00,,,0.00,WUHU21623XXSP,2013-11-05 17:21:00,
2013-11-05 11:26:00,67.3,57.2,30.24,North,0,0.0,0.0,69,0.00,,,0.00,WUHU21623XXSP,2013-11-05 17:26:00,
2013-11-05 11:31:00,67.6,57.1,30.24,North,0,0.0,0.0,69,0.00,,,0.00,WUHU21623XXSP,2013-11-05 17:31:00,
2013-11-05 11:36:00,67.8,57.3,30.24,North,0,0.0,0.0,69,0.00,,,0.00,WUHU21623XXSP,2013-11-05 17:36:00,
2013-11-05 11:41:00,68.2,57.7,30.24,North,0,0.0,0.0,69,0.00,,,0.00,WUHU21623XXSP,2013-11-05 17:41:00,
2013-11-05 11:46:00,68.4,57.8,30.23,North,0,0.0,0.0,69,0.00,,,0.00,WUHU21623XXSP,2013-11-05 17:46:00,
2013-11-05 11:51:00,68.5,57.4,30.23,North,0,0.0,0.0,68,0.00,,,0.00,WUHU21623XXSP,2013-11-05 17:51:00,
2013-11-05 11:56:00,68.5,57.5,30.23,North,0,0.0,0.0,68,0.00,,,0.00,WUHU21623XXSP,2013-11-05 17:56:00,
2013-11-05 12:01:00,68.5,57.5,30.23,North,0,0.0,0.0,68,0.00,,,0.00,WUHU21623XXSP,2013-11-05 18:01:00,
2013-11-05 12:06:00,68.7,58.1,30.22,North,0,0.0,0.0,69,0.00,,,0.00,WUHU21623XXSP,2013-11-05 18:06:00,
2013-11-05 12:11:00,68.9,57.9,30.22,North,0,0.0,0.0,68,0.00,,,0.00,WUHU21623XXSP,2013-11-05 18:11:00,
2013-11-05 12:16:00,69.1,58.0,30.22,North,0,0.0,0.0,68,0.00,,,0.00,WUHU21623XXSP,2013-11-05 18:16:00,
2013-11-05 12:21:00,69.4,58.8,30.22,North,0,0.0,0.0,69,0.00,,,0.00,WUHU21623XXSP,2013-11-05 18:21:00,
2013-11-05 12:26:00,69.6,58.1,30.22,North,0,0.0,0.0,68,0.00,,,0.00,WUHU21623XXSP,2013-11-05 18:26:00,
2013-11-05 12:31:00,69.6,58.1,30.22,North,0,0.0,0.0,67,0.00,,,0.00,WUHU21623XXSP,2013-11-05 18:31:00,
2013-11-05 12:36:00,70.0,58.3,30.21,North,0,0.0,0.0,67,0.00,,,0.00,WUHU21623XXSP,2013-11-05 18:36:00,
2013-11-05 12:41:00,70.2,58.5,30.21,North,0,0.0,0.0,68,0.00,,,0.00,WUHU21623XXSP,2013-11-05 18:41:00,
2013-11-05 12:46:00,70.3,59.2,30.21,North,0,0.0,0.0,67,0.00,,,0.00,WUHU21623XXSP,2013-11-05 18:46:00,
2013-11-05 12:51:00,70.5,59.0,30.21,North,0,0.0,0.0,67,0.00,,,0.00,WUHU21623XXSP,2013-11-05 18:51:00,
2013-11-05 12:56:00,70.9,59.3,30.21,North,0,0.0,0.0,67,0.00,,,0.00,WUHU21623XXSP,2013-11-05 18:56:00,
2013-11-05 13:01:00,71.2,60.1,30.21,North,0,0.0,0.0,68,0.00,,,0.00,WUHU21623XXSP,2013-11-05 19:01:00,
2013-11-05 13:06:00,71.8,59.8,30.20,North,0,0.0,0.0,66,0.00,,,0.00,WUHU21623XXSP,2013-11-05 19:06:00,
2013-11-05 13:11:00,72.0,60.0,30.20,North,0,0.0,0.0,66,0.00,,,0.00,WUHU21623XXSP,2013-11-05 19:11:00,
2013-11-05 13:16:00,72.1,60.1,30.19,North,0,0.0,0.0,66,0.00,,,0.00,WUHU21623XXSP,2013-11-05 19:16:00,
2013-11-05 13:21:00,72.5,60.3,30.19,North,0,0.0,0.0,66,0.00,,,0.00,WUHU21623XXSP,2013-11-05 19:21:00,
2013-11-05 13:26:00,73.0,61.0,30.19,North,0,0.0,0.0,66,0.00,,,0.00,WUHU21623XXSP,2013-11-05 19:26:00,
2013-11-05 13:31:00,73.2,60.7,30.19,North,0,0.0,0.0,65,0.00,,,0.00,WUHU21623XXSP,2013-11-05 19:31:00,
2013-11-05 13:36:00,73.6,60.6,30.19,North,0,0.0,0.0,64,0.00,,,0.00,WUHU21623XXSP,2013-11-05 19:36:00,
2013-11-05 13:41:00,73.6,60.6,30.19,North,0,0.0,0.0,65,0.00,,,0.00,WUHU21623XXSP,2013-11-05 19:41:00,
2013-11-05 13:46:00,73.8,61.2,30.19,North,0,0.0,0.0,65,0.00,,,0.00,WUHU21623XXSP,2013-11-05 19:46:00,
2013-11-05 13:51:00,73.6,60.6,30.19,North,0,0.0,0.0,64,0.00,,,0.00,WUHU21623XXSP,2013-11-05 19:51:00,
2013-11-05 13:56:00,73.4,60.6,30.18,North,0,0.0,0.0,64,0.00,,,0.00,WUHU21623XXSP,2013-11-05 19:56:00,
2013-11-05 14:01:00,73.2,60.3,30.18,North,0,0.0,0.0,65,0.00,,,0.00,WUHU21623XXSP,2013-11-05 20:01:00,
2013-11-05 14:06:00,73.0,60.5,30.18,North,0,0.0,0.0,65,0.00,,,0.00,WUHU21623XXSP,2013-11-05 20:06:00,
2013-11-05 14:11:00,73.2,60.7,30.18,North,0,0.0,0.0,65,0.00,,,0.00,WUHU21623XXSP,2013-11-05 20:11:00,
2013-11-05 14:16:00,73.2,61.2,30.18,North,0,0.0,0.0,66,0.00,,,0.00,WUHU21623XXSP,2013-11-05 20:16:00,
2013-11-05 14:21:00,73.6,61.5,30.18,North,0,0.0,0.0,66,0.00,,,0.00,WUHU21623XXSP,2013-11-05 20:21:00,
2013-11-05 14:26:00,73.9,61.4,30.18,North,0,0.0,0.0,65,0.00,,,0.00,WUHU21623XXSP,2013-11-05 20:26:00,
2013-11-05 14:31:00,74.3,61.7,30.17,North,0,0.0,0.0,65,0.00,,,0.00,WUHU21623XXSP,2013-11-05 20:31:00,
2013-11-05 14:36:00,74.8,61.8,30.18,North,0,0.0,0.0,64,0.00,,,0.00,WUHU21623XXSP,2013-11-05 20:36:00,
2013-11-05 14:41:00,74.8,61.8,30.17,North,0,0.0,0.0,64,0.00,,,0.00,WUHU21623XXSP,2013-11-05 20:41:00,
2013-11-05 14:46:00,74.7,61.8,30.17,North,0,0.0,0.0,63,0.00,,,0.00,WUHU21623XXSP,2013-11-05 20:46:00,
2013-11-05 14:51:00,74.5,61.5,30.17,North,0,0.0,0.0,64,0.00,,,0.00,WUHU21623XXSP,2013-11-05 20:51:00,
2013-11-05 14:56:00,74.8,61.8,30.17,North,0,0.0,0.0,64,0.00,,,0.00,WUHU21623XXSP,2013-11-05 20:56:00,
2013-11-05 15:01:00,74.8,61.4,30.17,North,0,0.0,0.0,63,0.00,,,0.00,WUHU21623XXSP,2013-11-05 21:01:00,
2013-11-05 15:06:00,74.8,61.8,30.17,North,0,0.0,0.0,64,0.00,,,0.00,WUHU21623XXSP,2013-11-05 21:06:00,
2013-11-05 15:11:00,74.5,61.5,30.17,North,0,0.0,0.0,64,0.00,,,0.00,WUHU21623XXSP,2013-11-05 21:11:00,
2013-11-05 15:16:00,74.3,61.3,30.17,North,0,0.0,0.0,64,0.00,,,0.00,WUHU21623XXSP,2013-11-05 21:16:00,
2013-11-05 15:21:00,74.1,61.6,30.17,North,0,0.0,0.0,65,0.00,,,0.00,WUHU21623XXSP,2013-11-05 21:21:00,
2013-11-05 15:26:00,73.9,61.4,30.17,North,0,0.0,0.0,65,0.00,,,0.00,WUHU21623XXSP,2013-11-05 21:26:00,
2013-11-05 15:31:00,73.8,61.2,30.17,North,0,0.0,0.0,65,0.00,,,0.00,WUHU21623XXSP,2013-11-05 21:31:00,
2013-11-05 15:36:00,73.8,61.2,30.17,North,0,0.0,0.0,65,0.00,,,0.00,WUHU21623XXSP,2013-11-05 21:36:00,
2013-11-05 15:41:00,73.6,61.1,30.16,North,0,0.0,0.0,65,0.00,,,0.00,WUHU21623XXSP,2013-11-05 21:41:00,
2013-11-05 15:46:00,73.2,61.2,30.16,North,0,0.0,0.0,66,0.00,,,0.00,WUHU21623XXSP,2013-11-05 21:46:00,
2013-11-05 15:51:00,73.0,61.0,30.17,North,0,0.0,0.0,66,0.00,,,0.00,WUHU21623XXSP,2013-11-05 21:51:00,
2013-11-05 15:56:00,72.7,61.1,30.16,North,0,0.0,0.0,67,0.00,,,0.00,WUHU21623XXSP,2013-11-05 21:56:00,
2013-11-05 16:01:00,72.5,60.9,30.16,North,0,0.0,0.0,67,0.00,,,0.00,WUHU21623XXSP,2013-11-05 22:01:00,
2013-11-05 16:06:00,72.3,60.7,30.16,North,0,0.0,0.0,67,0.00,,,0.00,WUHU21623XXSP,2013-11-05 22:06:00,
2013-11-05 16:11:00,72.1,61.0,30.16,North,0,0.0,0.0,68,0.00,,,0.00,WUHU21623XXSP,2013-11-05 22:11:00,
2013-11-05 16:16:00,72.0,60.8,30.16,North,0,0.0,0.0,68,0.00,,,0.00,WUHU21623XXSP,2013-11-05 22:16:00,
2013-11-05 16:21:00,71.8,60.6,30.16,North,0,0.0,0.0,68,0.00,,,0.00,WUHU21623XXSP,2013-11-05 22:21:00,
2013-11-05 16:26:00,71.6,60.5,30.16,North,0,0.0,0.0,68,0.00,,,0.00,WUHU21623XXSP,2013-11-05 22:26:00,
2013-11-05 16:31:00,71.4,60.3,30.16,North,0,0.0,0.0,68,0.00,,,0.00,WUHU21623XXSP,2013-11-05 22:31:00,
2013-11-05 16:36:00,71.2,60.1,30.16,North,0,0.0,0.0,68,0.00,,,0.00,WUHU21623XXSP,2013-11-05 22:36:00,
2013-11-05 16:41:00,71.2,60.5,30.16,North,0,0.0,0.0,69,0.00,,,0.00,WUHU21623XXSP,2013-11-05 22:41:00,
2013-11-05 16:46:00,70.9,60.2,30.16,North,0,0.0,0.0,69,0.00,,,0.00,WUHU21623XXSP,2013-11-05 22:46:00,
2013-11-05 16:51:00,70.7,60.4,30.16,North,0,0.0,0.0,70,0.00,,,0.00,WUHU21623XXSP,2013-11-05 22:51:00,
2013-11-05 16:56:00,70.3,60.1,30.16,North,0,0.0,0.0,70,0.00,,,0.00,WUHU21623XXSP,2013-11-05 22:56:00,
2013-11-05 17:01:00,70.2,60.3,30.16,North,0,0.0,0.0,71,0.00,,,0.00,WUHU21623XXSP,2013-11-05 23:01:00,
2013-11-05 17:06:00,69.6,59.8,30.16,North,0,0.0,0.0,71,0.00,,,0.00,WUHU21623XXSP,2013-11-05 23:06:00,
2013-11-05 17:11:00,69.6,59.8,30.16,North,0,0.0,0.0,71,0.00,,,0.00,WUHU21623XXSP,2013-11-05 23:11:00,
2013-11-05 17:16:00,69.3,59.4,30.16,North,0,0.0,0.0,71,0.00,,,0.00,WUHU21623XXSP,2013-11-05 23:16:00,
2013-11-05 17:21:00,68.9,59.5,30.16,North,0,0.0,0.0,72,0.00,,,0.00,WUHU21623XXSP,2013-11-05 23:21:00,
2013-11-05 17:26:00,68.7,59.7,30.16,North,0,0.0,0.0,73,0.00,,,0.00,WUHU21623XXSP,2013-11-05 23:26:00,
2013-11-05 17:31:00,68.5,59.5,30.16,North,0,0.0,0.0,73,0.00,,,0.00,WUHU21623XXSP,2013-11-05 23:31:00,
2013-11-05 17:36:00,68.2,59.2,30.16,North,0,0.0,0.0,73,0.00,,,0.00,WUHU21623XXSP,2013-11-05 23:36:00,
2013-11-05 17:41:00,67.8,58.9,30.17,North,0,0.0,0.0,73,0.00,,,0.00,WUHU21623XXSP,2013-11-05 23:41:00,
2013-11-05 17:46:00,67.8,59.3,30.17,North,0,0.0,0.0,74,0.00,,,0.00,WUHU21623XXSP,2013-11-05 23:46:00,
2013-11-05 17:51:00,67.6,59.1,30.17,North,0,0.0,0.0,74,0.00,,,0.00,WUHU21623XXSP,2013-11-05 23:51:00,
2013-11-05 17:56:00,67.3,58.7,30.17,North,0,0.0,0.0,74,0.00,,,0.00,WUHU21623XXSP,2013-11-05 23:56:00,
2013-11-05 18:01:00,67.1,58.9,30.17,North,0,0.0,0.0,75,0.00,,,0.00,WUHU21623XXSP,2013-11-06 00:01:00,
2013-11-05 18:06:00,66.9,58.7,30.17,North,0,0.0,0.0,75,0.00,,,0.00,WUHU21623XXSP,2013-11-06 00:06:00,
2013-11-05 18:11:00,66.7,58.5,30.17,North,0,0.0,0.0,75,0.00,,,0.00,WUHU21623XXSP,2013-11-06 00:11:00,
2013-11-05 18:16:00,66.7,58.5,30.18,North,0,0.0,0.0,75,0.00,,,0.00,WUHU21623XXSP,2013-11-06 00:16:00,
2013-11-05 18:21:00,66.6,58.7,30.17,North,0,0.0,0.0,76,0.00,,,0.00,WUHU21623XXSP,2013-11-06 00:21:00,
2013-11-05 18:26:00,66.4,58.9,30.17,North,0,0.0,0.0,77,0.00,,,0.00,WUHU21623XXSP,2013-11-06 00:26:00,
2013-11-05 18:31:00,66.4,58.9,30.17,North,0,0.0,0.0,77,0.00,,,0.00,WUHU21623XXSP,2013-11-06 00:31:00,
2013-11-05 18:36:00,66.4,59.3,30.17,North,0,0.0,0.0,78,0.00,,,0.00,WUHU21623XXSP,2013-11-06 00:36:00,
2013-11-05 18:41:00,66.4,59.3,30.17,North,0,0.0,0.0,78,0.00,,,0.00,WUHU21623XXSP,2013-11-06 00:41:00,
2013-11-05 18:46:00,66.6,59.3,30.17,North,0,0.0,0.0,78,0.00,,,0.00,WUHU21623XXSP,2013-11-06 00:46:00,
2013-11-05 18:51:00,66.7,59.7,30.17,North,0,0.0,0.0,78,0.00,,,0.00,WUHU21623XXSP,2013-11-06 00:51:00,
2013-11-05 18:56:00,66.7,59.7,30.17,North,0,0.0,0.0,78,0.00,,,0.00,WUHU21623XXSP,2013-11-06 00:56:00,
2013-11-05 19:01:00,66.9,59.5,30.17,North,0,0.0,0.0,77,0.00,,,0.00,WUHU21623XXSP,2013-11-06 01:01:00,
2013-11-05 19:06:00,67.3,59.5,30.17,North,0,0.0,0.0,76,0.00,,,0.00,WUHU21623XXSP,2013-11-06 01:06:00,
2013-11-05 19:11:00,67.3,59.5,30.18,North,0,0.0,0.0,76,0.00,,,0.00,WUHU21623XXSP,2013-11-06 01:11:00,
2013-11-05 19:16:00,67.5,59.6,30.18,North,0,0.0,0.0,76,0.00,,,0.00,WUHU21623XXSP,2013-11-06 01:16:00,
2013-11-05 19:21:00,67.6,59.8,30.18,North,0,0.0,0.0,76,0.00,,,0.00,WUHU21623XXSP,2013-11-06 01:21:00,
2013-11-05 19:26:00,67.6,59.5,30.18,North,0,0.0,0.0,75,0.00,,,0.00,WUHU21623XXSP,2013-11-06 01:26:00,
2013-11-05 19:31:00,67.6,59.5,30.18,North,0,0.0,0.0,75,0.00,,,0.00,WUHU21623XXSP,2013-11-06 01:31:00,
2013-11-05 19:36:00,67.6,59.1,30.18,North,0,0.0,0.0,74,0.00,,,0.00,WUHU21623XXSP,2013-11-06 01:36:00,
2013-11-05 19:41:00,67.6,59.1,30.18,North,0,0.0,0.0,74,0.00,,,0.00,WUHU21623XXSP,2013-11-06 01:41:00,
2013-11-05 19:46:00,67.6,59.1,30.18,North,0,0.0,0.0,74,0.00,,,0.00,WUHU21623XXSP,2013-11-06 01:46:00,
2013-11-05 19:51:00,67.6,59.1,30.18,North,0,0.0,0.0,74,0.00,,,0.00,WUHU21623XXSP,2013-11-06 01:51:00,
2013-11-05 19:56:00,67.6,58.7,30.18,North,0,0.0,0.0,73,0.00,,,0.00,WUHU21623XXSP,2013-11-06 01:56:00,
2013-11-05 20:01:00,67.6,58.7,30.19,North,0,0.0,0.0,73,0.00,,,0.00,WUHU21623XXSP,2013-11-06 02:01:00,
2013-11-05 20:06:00,67.3,58.3,30.19,North,0,0.0,0.0,73,0.00,,,0.00,WUHU21623XXSP,2013-11-06 02:06:00,
2013-11-05 20:11:00,67.3,58.3,30.18,North,0,0.0,0.0,73,0.00,,,0.00,WUHU21623XXSP,2013-11-06 02:11:00,
2013-11-05 20:16:00,67.1,58.2,30.19,North,0,0.0,0.0,73,0.00,,,0.00,WUHU21623XXSP,2013-11-06 02:16:00,
2013-11-05 20:21:00,66.9,58.0,30.19,North,0,0.0,0.0,73,0.00,,,0.00,WUHU21623XXSP,2013-11-06 02:21:00,
2013-11-05 20:26:00,66.9,58.0,30.19,North,0,0.0,0.0,73,0.00,,,0.00,WUHU21623XXSP,2013-11-06 02:26:00,
2013-11-05 20:31:00,66.7,57.8,30.19,North,0,0.0,0.0,73,0.00,,,0.00,WUHU21623XXSP,2013-11-06 02:31:00,
2013-11-05 20:36:00,66.7,57.8,30.19,North,0,0.0,0.0,73,0.00,,,0.00,WUHU21623XXSP,2013-11-06 02:36:00,
2013-11-05 20:41:00,66.7,57.8,30.19,North,0,0.0,0.0,73,0.00,,,0.00,WUHU21623XXSP,2013-11-06 02:41:00,
2013-11-05 20:46:00,66.6,57.6,30.19,North,0,0.0,0.0,73,0.00,,,0.00,WUHU21623XXSP,2013-11-06 02:46:00,
2013-11-05 20:51:00,66.4,57.4,30.19,North,0,0.0,0.0,73,0.00,,,0.00,WUHU21623XXSP,2013-11-06 02:51:00,
2013-11-05 20:56:00,66.4,57.4,30.19,North,0,0.0,0.0,73,0.00,,,0.00,WUHU21623XXSP,2013-11-06 02:56:00,
2013-11-05 21:01:00,66.4,57.4,30.19,North,0,0.0,0.0,73,0.00,,,0.00,WUHU21623XXSP,2013-11-06 03:01:00,
2013-11-05 21:06:00,66.2,57.3,30.19,North,0,0.0,0.0,73,0.00,,,0.00,WUHU21623XXSP,2013-11-06 03:06:00,
2013-11-05 21:11:00,66.0,56.7,30.19,North,0,0.0,0.0,72,0.00,,,0.00,WUHU21623XXSP,2013-11-06 03:11:00,
2013-11-05 21:16:00,66.0,56.7,30.19,North,0,0.0,0.0,72,0.00,,,0.00,WUHU21623XXSP,2013-11-06 03:16:00,
2013-11-05 21:21:00,66.0,56.7,30.20,North,0,0.0,0.0,72,0.00,,,0.00,WUHU21623XXSP,2013-11-06 03:21:00,
2013-11-05 21:26:00,65.8,56.7,30.20,North,0,0.0,0.0,72,0.00,,,0.00,WUHU21623XXSP,2013-11-06 03:26:00,
2013-11-05 21:31:00,65.8,56.9,30.19,North,0,0.0,0.0,73,0.00,,,0.00,WUHU21623XXSP,2013-11-06 03:31:00,
2013-11-05 21:36:00,65.5,56.6,30.19,North,0,0.0,0.0,73,0.00,,,0.00,WUHU21623XXSP,2013-11-06 03:36:00,
2013-11-05 21:41:00,65.5,56.6,30.19,North,0,0.0,0.0,73,0.00,,,0.00,WUHU21623XXSP,2013-11-06 03:41:00,
2013-11-05 21:46:00,65.3,56.4,30.19,North,0,0.0,0.0,73,0.00,,,0.00,WUHU21623XXSP,2013-11-06 03:46:00,
2013-11-05 21:51:00,65.1,56.2,30.19,North,0,0.0,0.0,73,0.00,,,0.00,WUHU21623XXSP,2013-11-06 03:51:00,
2013-11-05 21:56:00,64.9,56.4,30.19,North,0,0.0,0.0,74,0.00,,,0.00,WUHU21623XXSP,2013-11-06 03:56:00,
2013-11-05 22:01:00,64.9,56.4,30.19,North,0,0.0,0.0,74,0.00,,,0.00,WUHU21623XXSP,2013-11-06 04:01:00,
2013-11-05 22:06:00,64.8,55.9,30.19,North,0,0.0,0.0,73,0.00,,,0.00,WUHU21623XXSP,2013-11-06 04:06:00,
2013-11-05 22:11:00,64.6,56.1,30.18,North,0,0.0,0.0,74,0.00,,,0.00,WUHU21623XXSP,2013-11-06 04:11:00,
2013-11-05 22:16:00,64.4,55.9,30.18,North,0,0.0,0.0,74,0.00,,,0.00,WUHU21623XXSP,2013-11-06 04:16:00,
2013-11-05 22:21:00,64.2,55.8,30.19,North,0,0.0,0.0,74,0.00,,,0.00,WUHU21623XXSP,2013-11-06 04:21:00,
2013-11-05 22:26:00,64.0,55.9,30.18,North,0,0.0,0.0,75,0.00,,,0.00,WUHU21623XXSP,2013-11-06 04:26:00,
2013-11-05 22:31:00,64.0,55.9,30.19,North,0,0.0,0.0,75,0.00,,,0.00,WUHU21623XXSP,2013-11-06 04:31:00,
2013-11-05 22:36:00,63.7,55.6,30.18,North,0,0.0,0.0,75,0.00,,,0.00,WUHU21623XXSP,2013-11-06 04:36:00,
2013-11-05 22:41:00,63.7,55.6,30.18,North,0,0.0,0.0,75,0.00,,,0.00,WUHU21623XXSP,2013-11-06 04:41:00,
2013-11-05 22:46:00,63.5,55.4,30.18,North,0,0.0,0.0,75,0.00,,,0.00,WUHU21623XXSP,2013-11-06 04:46:00,
2013-11-05 22:51:00,63.3,55.6,30.18,North,0,0.0,0.0,76,0.00,,,0.00,WUHU21623XXSP,2013-11-06 04:51:00,
2013-11-05 22:56:00,63.1,55.4,30.18,North,0,0.0,0.0,76,0.00,,,0.00,WUHU21623XXSP,2013-11-06 04:56:00,
2013-11-05 23:01:00,63.1,55.4,30.18,North,0,0.0,0.0,76,0.00,,,0.00,WUHU21623XXSP,2013-11-06 05:01:00,
2013-11-05 23:02:00,63.1,55.4,30.18,North,0,0.0,0.0,76,0.00,,,0.00,WUHU21623XXSP,2013-11-06 05:02:00,
2013-11-05 23:07:00,63.1,55.4,30.18,North,0,0.0,0.0,76,0.00,,,0.00,WUHU21623XXSP,2013-11-06 05:07:00,
2013-11-05 23:12:00,62.8,55.0,30.18,North,0,0.0,0.0,76,0.00,,,0.00,WUHU21623XXSP,2013-11-06 05:12:00,
2013-11-05 23:17:00,62.8,55.0,30.18,North,0,0.0,0.0,76,0.00,,,0.00,WUHU21623XXSP,2013-11-06 05:17:00,
2013-11-05 23:22:00,62.6,55.2,30.18,North,0,0.0,0.0,77,0.00,,,0.00,WUHU21623XXSP,2013-11-06 05:22:00,
2013-11-05 23:27:00,62.4,55.1,30.17,North,0,0.0,0.0,77,0.00,,,0.00,WUHU21623XXSP,2013-11-06 05:27:00,
2013-11-05 23:32:00,62.4,55.1,30.17,North,0,0.0,0.0,77,0.00,,,0.00,WUHU21623XXSP,2013-11-06 05:32:00,
2013-11-05 23:37:00,62.2,54.9,30.17,North,0,0.0,0.0,77,0.00,,,0.00,WUHU21623XXSP,2013-11-06 05:37:00,
2013-11-05 23:42:00,62.2,54.9,30.17,North,0,0.0,0.0,77,0.00,,,0.00,WUHU21623XXSP,2013-11-06 05:42:00,
2013-11-05 23:47:00,61.9,54.6,30.17,North,0,0.0,0.0,77,0.00,,,0.00,WUHU21623XXSP,2013-11-06 05:47:00,
2013-11-05 23:52:00,61.9,54.6,30.17,North,0,0.0,0.0,77,0.00,,,0.00,WUHU21623XXSP,2013-11-06 05:52:00,
2013-11-05 23:57:00,61.7,54.4,30.17,North,0,0.0,0.0,77,0.00,,,0.00,WUHU21623XXSP,2013-11-06 05:57:00,